Wind_Speed
7 7 7 7 7 7 8 8 9 9 10 10 10 10 10 10 10 9 8 7 7 7 7 6 7 8 9 10 11 11 11 13 13 14 16 13 10 12 9 7 6 5 4 3 3 3 4 4 4 4 6 8 7 7 9 8 6 4 2 3 4 5 5 2 2 1 1 1 3 8 9 6 4 7 10 9 12 16 14 16 16 16 18 19 20 20 21 21
8 8 8 7 7 8 8 8 9 9 10 10 10 10 11 11 11 10 10 9 8 8 8 7 7 7 8 9 11 12 12 13 15 18 19 15 13 13 12 10 8 6 4 3 3 2 3 5 4 6 9 9 8 8 8 6 7 6 3 3 5 5 4 1 3 3 2 2 1 5 8 7 6 6 9 6 8 14 14 17 19 19 19 21 24 24 25 26
9 9 9 8 8 8 8 9 9 9 9 10 10 10 11 11 11 11 11 10 10 9 9 8 8 8 8 9 10 11 12 13 17 22 20 17 16 14 14 12 9 8 5 4 4 3 5 7 6 7 10 10 10 10 8 6 6 8 6 3 6 4 4 5 4 3 3 4 4 5 6 8 9 7 7 5 8 11 12 15 17 21 25 25 27 27 28 29
10 10 10 9 9 9 9 9 9 10 10 10 10 11 11 11 11 12 11 11 11 10 10 9 9 9 9 9 9 8 10 11 15 19 17 16 17 15 15 13 11 9 6 5 5 4 5 6 5 7 10 10 12 11 7 8 6 6 6 4 7 5 5 7 5 2 3 2 5 9 6 6 9 10 9 7 6 8 14 20 21 24 29 28 29 30 30 30
10 10 10 10 9 9 9 10 10 10 10 11 11 11 12 11 11 12 12 12 11 11 11 10 10 10 9 9 9 6 5 5 5 7 8 10 13 15 16 14 13 10 8 6 5 5 4 4 4 7 9 9 11 9 8 14 12 4 7 10 14 12 6 5 4 2 4 4 5 8 7 7 9 11 14 12 8 11 14 18 20 23 26 26 28 29 29 30
11 11 10 10 10 10 10 10 10 11 11 11 11 12 12 12 12 12 13 13 13 12 12 12 11 11 10 9 9 7 5 3 3 5 9 9 9 13 16 15 14 12 10 8 6 5 4 4 5 8 8 7 9 9 11 16 14 5 8 13 18 18 11 7 6 6 7 7 7 8 8 11 9 10 16 18 22 25 20 15 15 16 18 21 24 27 29 30
12 12 12 11 11 11 11 11 11 11 11 12 12 12 13 14 13 13 14 15 15 14 14 13 13 12 11 9 9 8 10 13 15 16 16 15 10 11 15 15 14 13 12 10 7 4 5 6 9 11 8 7 9 10 10 8 11 6 7 11 18 20 15 12 10 9 9 10 12 10 8 10 11 9 13 22 31 33 28 23 20 19 18 18 19 23 26 28
14 14 13 13 13 12 12 12 12 12 12 12 12 13 13 15 15 15 15 15 16 16 15 15 15 13 12 9 9 8 13 19 20 19 19 17 13 11 14 15 14 13 13 11 9 6 6 8 11 12 7 6 7 7 5 2 8 8 8 12 15 14 13 13 13 12 13 13 14 12 11 13 17 14 14 27 34 29 27 26 25 24 23 22 23 25 27 28
16 16 15 15 15 15 14 14 14 13 13 13 13 13 14 15 16 16 16 17 17 17 17 17 16 14 12 10 7 7 12 16 16 17 18 17 15 14 14 15 14 14 13 13 11 8 8 8 9 8 5 8 11 9 6 3 4 5 8 12 11 11 13 13 15 16 15 15 13 10 13 18 20 15 16 33 39 31 28 26 26 26 25 26 26 29 31 32
18 17 17 17 17 17 17 17 16 16 15 15 15 14 15 15 16 17 17 18 18 18 18 17 17 15 12 10 5 5 11 13 12 14 14 14 15 15 17 16 16 15 14 13 13 11 10 9 9 8 8 10 10 11 9 4 5 7 10 13 14 17 20 19 19 19 18 16 16 13 11 16 18 10 13 30 31 25 26 28 29 28 28 29 28 29 32 34
20 19 19 19 19 19 19 19 19 18 17 17 16 16 16 16 17 17 18 18 19 19 19 18 18 14 12 10 7 9 15 16 14 14 14 14 14 15 17 18 17 17 15 13 13 13 13 12 12 10 8 6 6 10 9 6 8 11 10 12 15 18 22 23 21 22 17 12 18 17 8 13 13 8 18 33 26 16 19 23 26 28 30 31 31 31 32 34
21 21 20 20 20 21 20 20 20 20 20 19 19 18 18 18 18 18 19 19 19 19 19 19 17 14 12 11 15 17 19 19 18 18 18 17 16 15 16 17 18 17 16 14 13 13 14 14 12 10 8 6 7 7 6 5 8 9 6 8 13 13 16 21 21 22 17 8 13 13 5 11 10 14 30 40 32 22 19 21 23 26 29 31 33 34 34 35
24 24 23 23 23 23 23 22 23 22 22 22 22 21 21 21 20 20 19 19 20 20 20 19 18 15 10 12 19 20 19 19 19 19 19 19 18 17 15 16 16 17 17 16 15 14 14 13 11 12 12 9 7 7 8 11 9 7 6 5 9 9 9 17 20 20 15 7 13 13 2 9 10 20 33 34 32 27 23 25 25 25 28 30 32 34 36 37
27 26 26 26 26 26 26 25 26 26 25 25 24 23 23 23 23 22 21 21 21 21 20 20 18 14 9 15 22 21 19 20 20 21 20 19 18 17 16 15 15 16 17 17 17 15 14 12 11 11 12 12 10 9 10 10 7 4 5 5 5 4 6 10 8 12 10 7 17 13 4 10 7 15 25 23 26 25 23 27 27 27 28 30 32 35 37 38
29 29 28 29 29 29 29 29 29 29 29 28 27 26 25 25 25 24 23 23 22 22 22 21 18 12 10 16 22 19 18 19 20 21 19 19 18 16 16 15 15 15 16 16 16 15 13 11 11 9 8 10 10 7 5 5 5 3 2 5 4 4 7 8 2 14 11 7 16 12 4 10 8 17 23 19 23 24 24 27 26 27 29 30 33 35 38 38
27 27 28 28 28 29 30 30 30 31 31 31 30 29 29 28 27 27 26 26 24 23 21 18 16 11 7 13 18 18 17 17 19 19 16 16 16 15 16 15 14 14 14 14 14 13 12 10 10 9 6 5 5 4 3 5 5 4 5 6 6 5 8 6 3 12 11 6 11 12 5 7 7 14 15 8 19 25 23 24 25 26 27 29 33 35 37 37
24 24 25 25 26 27 27 27 28 30 31 31 32 31 30 29 29 28 27 26 24 22 19 13 11 9 9 14 17 18 20 18 17 16 13 14 14 15 15 13 11 12 11 11 12 11 10 9 6 6 8 5 4 4 3 5 6 4 6 6 7 8 8 6 2 6 9 7 8 12 9 12 10 11 11 8 16 23 21 23 25 26 27 30 33 34 34 34
24 24 23 24 25 26 26 26 27 28 29 30 30 30 30 30 29 28 26 25 20 15 12 10 7 3 9 16 16 17 17 14 12 12 11 11 12 13 13 12 9 8 7 7 10 10 9 8 6 3 4 5 5 6 5 7 7 5 6 5 6 7 8 9 5 3 10 7 7 9 10 17 15 12 17 22 23 20 20 24 27 31 32 34 37 36 34 34
25 24 24 25 26 27 27 27 27 28 29 29 28 28 29 29 27 25 23 21 14 8 7 11 13 6 5 9 11 13 14 13 13 12 12 11 11 12 13 11 9 8 6 4 6 10 11 5 5 4 5 8 8 9 10 11 10 10 10 7 7 6 8 13 10 4 10 7 8 12 12 16 16 13 15 24 29 26 24 25 27 31 32 35 38 36 34 35
24 24 25 25 26 27 27 27 27 28 28 28 28 26 23 18 14 12 12 17 20 18 18 16 17 16 12 11 12 14 15 16 15 15 15 12 10 11 12 11 8 8 7 5 5 9 11 5 4 8 11 11 10 12 14 14 13 12 11 9 7 7 10 14 12 5 10 7 9 14 14 15 17 14 13 20 25 22 20 22 25 28 31 36 37 35 33 35
22 24 24 24 25 27 26 26 26 26 26 25 26 20 13 10 8 6 8 16 23 25 26 23 20 21 21 19 18 19 18 15 15 18 17 13 12 9 12 13 6 5 9 9 5 4 7 6 9 15 15 11 9 12 13 12 12 11 9 8 7 7 11 14 11 5 8 6 8 11 11 14 16 13 12 17 17 16 19 20 24 29 33 38 37 35 35 33
20 21 22 22 23 24 24 24 24 24 23 21 20 15 11 13 14 14 13 14 22 27 25 25 24 26 27 24 23 25 20 13 16 22 19 16 17 12 12 14 7 6 8 9 6 3 5 10 14 17 13 10 11 11 9 9 9 9 7 5 7 9 10 12 9 3 4 3 6 8 10 12 15 13 13 16 15 18 27 29 30 33 33 34 35 35 33 26
17 18 19 19 19 20 20 19 19 19 19 16 15 14 13 14 13 16 15 10 18 27 27 28 30 31 31 29 29 28 23 19 19 23 25 22 22 19 15 12 9 8 6 9 9 7 8 10 15 18 14 12 13 10 7 7 7 7 7 5 8 10 8 8 5 2 4 4 6 8 9 10 13 14 14 20 25 27 32 35 36 37 34 36 39 38 31 23
16 17 17 16 16 16 15 15 14 13 14 13 12 11 11 11 11 13 12 9 12 18 28 33 31 34 35 30 30 29 27 27 22 21 27 28 23 18 15 12 10 9 8 12 14 15 15 8 8 12 13 13 13 10 7 5 7 8 8 8 10 12 11 10 7 2 3 5 6 6 9 9 10 13 13 16 22 23 25 27 30 35 37 38 40 38 33 25
17 17 16 16 14 14 14 12 9 9 10 9 8 7 7 7 7 9 9 8 8 8 15 23 23 29 33 30 30 26 21 23 22 22 26 30 26 14 8 12 11 7 11 14 14 15 16 10 8 7 7 9 10 8 7 6 8 9 7 12 15 15 13 13 9 5 3 4 2 2 7 8 7 11 11 7 8 11 14 16 20 30 36 36 35 37 34 26
20 19 19 17 15 14 13 9 8 11 9 7 7 5 5 4 4 8 7 4 7 3 6 11 12 14 18 23 27 20 8 11 20 25 22 25 29 17 5 8 9 8 9 9 9 8 7 8 10 9 7 8 7 6 6 8 7 9 5 7 11 12 11 10 6 2 1 5 2 4 3 10 7 8 9 6 5 8 9 10 15 25 32 32 33 36 31 23
20 21 22 21 19 17 13 9 9 11 7 7 7 3 3 3 2 5 4 4 7 4 7 7 7 7 8 13 22 17 1 3 11 18 20 22 26 19 8 7 7 8 4 1 6 5 3 6 6 7 8 7 7 8 7 9 7 6 2 1 2 4 6 5 3 4 3 3 4 4 4 9 14 6 8 10 9 8 9 9 12 19 28 32 35 35 28 23
20 21 22 23 23 20 16 13 11 10 8 8 5 3 3 2 1 2 1 6 4 7 6 5 6 6 6 11 21 15 1 2 5 9 20 24 22 16 10 11 8 7 6 4 7 3 3 7 7 9 8 6 8 7 5 10 8 5 1 1 3 1 1 1 1 4 3 4 4 5 7 5 15 6 7 10 10 10 12 13 13 15 24 31 34 35 29 24
22 22 23 23 24 23 20 16 11 9 10 8 4 5 4 4 2 2 1 5 1 5 4 6 6 5 6 9 14 10 2 2 0 5 15 19 21 13 5 9 9 7 6 8 11 6 0 4 5 6 7 7 7 1 1 6 6 4 3 3 5 2 1 2 2 2 2 5 6 6 8 4 15 8 5 7 8 9 11 12 13 15 23 30 32 35 32 26
25 25 24 24 24 23 22 20 14 9 9 6 4 5 5 4 1 1 5 6 1 3 4 6 5 6 10 7 6 9 4 0 3 7 8 9 15 11 2 2 4 5 5 6 9 9 2 3 2 2 5 4 4 4 3 1 2 3 3 2 2 1 1 1 2 2 1 9 7 10 13 8 10 5 6 6 6 9 9 8 9 12 20 28 30 31 30 27
27 26 25 26 26 24 22 21 19 14 9 5 3 8 6 2 1 3 8 3 2 1 5 4 3 8 12 8 5 8 6 3 6 9 6 3 8 8 3 2 1 1 4 6 8 9 5 2 0 2 4 5 6 2 1 2 1 3 4 2 1 3 2 2 1 3 2 10 5 11 16 13 11 5 3 4 6 10 10 8 10 10 15 26 31 30 28 27
29 28 28 30 29 28 26 24 23 17 10 5 6 8 3 1 3 9 6 4 2 3 3 4 5 6 9 8 5 6 5 4 7 8 5 4 5 6 6 6 5 2 3 5 5 5 6 8 6 2 3 9 6 2 2 4 1 3 5 4 1 3 2 1 2 2 4 10 5 10 13 11 14 10 5 7 7 9 9 9 12 12 14 24 30 27 25 26
31 30 31 32 32 32 31 29 26 19 13 8 8 5 2 2 7 9 5 0 1 2 2 2 6 6 6 6 4 5 4 3 7 8 4 6 5 6 8 8 5 3 4 4 3 2 3 6 7 4 3 10 11 6 4 2 4 7 6 6 5 4 3 4 4 3 6 9 7 7 10 6 9 7 10 15 14 13 13 13 16 15 15 23 27 22 20 24
32 32 34 35 36 35 32 31 28 22 16 10 10 5 2 5 8 4 2 4 4 2 2 3 4 6 6 5 3 6 5 3 7 8 5 6 4 5 7 9 10 6 2 1 3 3 4 7 7 9 3 11 15 13 11 4 5 9 6 5 6 5 3 4 5 7 7 6 5 3 6 4 4 2 10 15 15 17 20 21 23 21 19 24 25 17 16 23
31 33 36 38 38 36 33 32 30 25 18 13 11 4 3 7 7 4 3 5 6 4 1 2 3 6 6 5 3 6 8 5 6 8 5 7 6 5 6 8 13 10 2 2 3 3 6 10 8 10 4 12 15 15 11 5 1 6 4 3 6 5 5 5 7 9 5 5 6 4 4 6 6 8 10 10 10 12 15 18 20 20 23 28 24 17 17 22
32 32 35 39 40 38 35 34 32 28 21 17 8 2 7 7 5 3 1 2 4 4 1 1 2 4 5 4 3 6 7 3 5 6 4 7 7 7 6 5 12 14 9 7 3 2 5 7 4 6 1 6 8 7 8 6 2 3 4 5 6 3 5 5 8 7 2 6 9 6 6 7 8 12 12 13 14 13 11 13 13 16 26 30 24 20 22 23
32 30 33 39 40 39 37 36 34 30 25 17 6 6 8 7 9 7 5 5 7 7 2 3 3 4 6 4 4 7 5 2 5 6 3 5 6 9 9 6 11 17 16 13 4 4 6 6 3 6 2 3 2 5 2 3 3 5 3 5 2 2 1 3 2 4 3 7 9 8 10 10 10 10 5 4 10 12 12 13 11 16 25 24 21 24 27 26
29 28 32 39 40 38 38 37 36 33 24 11 7 10 7 6 9 9 8 9 9 8 6 7 5 6 7 7 5 7 8 5 6 6 4 4 5 9 11 7 10 17 21 18 7 4 4 6 5 2 1 2 3 4 3 3 1 4 2 1 3 1 1 2 2 3 5 6 7 9 11 11 12 11 8 5 7 10 11 12 12 15 17 14 18 25 25 23
22 19 22 31 32 30 34 37 36 32 18 6 9 9 5 7 9 9 11 10 7 6 8 9 7 6 8 9 7 4 8 8 7 5 5 5 5 8 12 9 9 14 21 20 10 5 3 4 6 1 3 2 2 2 4 2 2 2 4 4 1 2 3 4 3 3 5 6 7 10 10 12 12 8 7 10 8 10 9 8 9 11 12 14 19 23 21 22
16 10 12 21 19 16 24 31 31 23 9 4 8 8 5 6 7 11 17 14 7 5 6 6 5 5 6 7 9 6 5 7 7 5 5 5 6 6 9 10 7 9 17 17 11 6 2 5 7 1 3 1 2 4 7 8 6 3 1 2 2 2 1 1 3 3 5 6 6 7 9 14 10 2 1 5 4 9 10 8 9 9 12 16 17 18 19 21
13 6 9 16 11 4 15 24 17 8 4 2 4 7 6 5 5 8 14 13 7 5 5 3 3 4 5 7 8 8 5 5 5 5 5 5 7 5 5 10 8 5 8 7 6 6 3 5 7 2 1 5 7 7 10 12 9 7 7 8 8 7 4 3 6 6 5 4 6 7 8 15 10 4 5 5 3 3 5 5 5 6 10 15 16 17 19 20
11 6 7 13 9 5 17 16 5 2 3 4 5 5 4 5 6 9 13 13 8 5 4 4 3 5 7 8 8 9 7 6 7 7 6 6 8 6 2 10 11 7 7 4 7 11 6 3 6 7 6 7 8 5 5 8 7 3 5 7 8 7 7 8 9 7 4 4 6 7 9 16 13 2 6 9 5 5 6 3 2 4 8 13 14 16 18 19
11 9 9 12 11 11 15 7 1 3 3 5 7 8 8 6 4 6 9 10 8 5 4 4 5 8 9 8 9 9 8 7 8 11 12 12 10 10 11 7 6 2 4 2 4 6 4 3 5 8 5 6 9 5 3 3 2 3 4 5 6 6 7 9 7 5 6 5 6 9 11 14 13 5 5 11 10 8 11 11 9 11 16 18 17 18 21 23
12 14 12 13 15 18 14 4 3 6 6 8 8 10 13 10 8 10 8 8 8 5 4 5 7 10 9 7 7 9 8 7 7 10 12 12 9 12 18 17 14 6 2 4 4 1 2 2 5 6 5 5 8 8 5 3 1 2 5 6 7 7 7 7 4 4 7 8 10 13 11 10 12 8 5 9 10 8 10 13 12 13 17 19 20 22 25 27
9 11 11 17 26 29 19 11 10 7 7 11 12 14 14 10 12 21 20 15 14 10 5 6 10 10 8 6 7 10 11 9 6 6 7 8 9 14 18 15 11 5 6 11 10 4 3 3 2 4 6 7 7 8 7 3 0 2 4 6 8 9 9 7 5 6 8 10 14 14 11 11 15 16 15 17 16 13 13 16 17 18 22 24 24 26 27 29
6 5 5 12 27 34 25 19 17 10 8 12 10 11 15 12 13 24 25 18 18 18 12 9 9 7 6 9 10 12 13 12 9 6 4 6 7 9 15 16 9 7 13 16 13 6 1 2 4 6 8 9 10 11 10 8 6 5 6 9 9 8 10 8 6 8 9 11 13 13 13 15 16 19 23 24 21 18 16 16 17 21 25 27 27 28 28 29
6 4 3 4 13 21 20 18 16 8 8 13 6 5 14 16 11 14 18 16 17 19 13 8 10 8 8 12 12 10 12 13 12 11 10 11 9 9 17 19 16 19 21 13 6 3 1 5 10 14 16 16 16 18 18 16 16 16 15 14 12 10 11 11 10 13 13 13 13 12 14 19 19 19 25 28 25 19 14 14 18 24 27 28 27 25 25 26
8 6 7 5 2 6 9 13 14 10 9 12 8 6 14 17 12 10 12 14 17 15 8 7 13 16 17 17 12 9 11 11 11 12 12 13 12 12 15 15 17 26 23 9 5 5 3 7 12 15 18 21 21 22 23 21 21 22 21 20 19 16 14 14 17 20 18 15 14 13 19 24 22 20 24 26 22 17 17 24 32 34 34 35 32 27 26 28
9 10 12 11 6 3 6 9 10 10 10 10 7 7 12 16 17 15 10 9 10 12 11 11 13 16 19 20 16 12 11 11 13 13 11 14 15 12 10 10 15 22 19 9 6 7 4 6 11 15 18 21 23 24 25 26 25 24 22 20 17 16 15 17 20 21 20 18 17 20 26 26 21 21 23 23 22 23 28 36 39 36 35 39 37 28 26 30
9 7 9 12 9 9 12 11 7 6 9 9 6 6 9 13 16 14 10 10 9 8 13 17 19 18 18 19 19 17 16 17 18 16 13 13 12 9 8 9 10 10 11 9 6 8 8 8 12 14 14 16 20 22 24 25 24 23 23 19 14 15 18 21 21 18 16 18 22 24 25 20 19 22 22 21 24 27 30 32 33 34 37 40 38 30 25 29
11 10 9 9 7 8 11 9 5 5 6 6 6 7 9 12 14 13 13 16 18 13 11 16 19 17 17 19 21 22 22 23 23 25 24 20 16 13 10 10 10 9 7 7 7 8 9 9 9 9 10 12 15 19 22 23 22 22 20 18 18 21 22 20 19 17 17 21 24 23 19 16 18 19 16 16 21 24 25 25 27 35 40 40 38 33 27 29
12 13 11 8 4 5 8 6 5 7 6 5 7 10 12 14 14 13 12 14 21 24 23 22 18 13 14 18 20 22 24 25 26 30 33 32 29 27 22 15 14 11 7 6 6 7 8 8 7 7 9 9 12 18 20 18 16 15 15 20 27 28 25 21 20 22 24 22 19 17 17 17 17 15 13 17 22 22 23 25 28 33 38 41 39 35 31 33
Wind_Direction
322 325 326 329 335 338 342 346 349 351 353 355 356 360 2 6 9 8 4 349 333 324 323 326 321 316 307 294 289 286 285 282 280 279 271 263 256 259 264 270 271 265 275 282 271 259 244 251 244 215 217 243 247 233 239 239 221 217 205 226 241 245 251 266 303 352 92 123 136 177 188 209 221 193 219 237 234 236 242 244 239 237 240 241 243 245 245 245
314 316 317 321 325 328 333 337 342 344 347 348 350 353 354 357 1 4 3 358 350 333 320 316 313 312 311 301 292 286 282 284 283 275 267 263 258 256 259 257 253 248 255 263 261 245 234 264 259 215 214 236 242 223 229 228 203 213 236 250 243 255 260 258 336 348 15 330 313 189 191 216 239 204 203 226 234 225 234 245 238 237 238 238 241 240 243 245
309 311 314 317 319 323 326 330 335 338 342 344 345 347 350 352 353 357 360 0 358 349 336 322 313 308 310 309 300 288 283 286 283 275 269 264 258 254 255 248 240 240 241 245 253 236 229 251 255 227 225 239 238 217 216 216 202 222 234 265 253 272 316 304 316 308 299 311 303 268 216 209 235 225 186 206 249 228 227 236 227 229 230 232 237 238 240 243
306 308 310 313 316 319 321 326 330 333 337 339 341 343 345 347 347 349 352 356 358 355 351 340 328 315 310 312 309 296 290 290 280 279 278 268 258 250 246 240 235 237 237 241 251 246 241 248 256 254 244 249 244 222 206 206 203 220 210 230 266 287 322 309 324 301 280 286 273 283 268 220 235 236 206 204 253 243 234 238 230 230 234 232 233 238 241 243
302 304 307 310 312 315 318 322 325 328 332 333 336 337 337 341 342 343 343 348 352 353 353 348 343 332 319 311 310 298 290 299 279 294 305 279 258 245 239 235 233 235 238 241 248 256 272 275 269 264 248 257 255 228 218 220 214 237 238 245 266 271 275 295 316 245 250 253 258 274 267 250 244 236 225 211 226 241 235 240 241 239 241 238 234 238 241 242
298 300 301 304 306 310 312 315 320 322 325 327 330 330 330 333 335 336 336 339 343 347 349 346 345 341 331 316 306 286 248 251 275 309 326 310 269 240 233 234 232 233 238 239 250 263 286 286 256 251 240 251 258 242 246 225 203 227 254 248 261 269 271 277 277 249 246 249 243 250 259 257 248 239 235 226 233 245 245 244 256 257 243 238 238 236 237 239
294 295 297 299 300 303 306 309 312 315 318 320 321 322 323 324 328 330 329 333 336 339 342 341 340 338 333 319 303 280 240 249 269 280 295 303 288 246 231 233 232 233 237 238 246 260 286 277 252 253 248 246 257 260 261 209 185 224 262 257 269 277 274 266 269 257 245 245 241 246 268 258 238 240 247 242 244 250 254 252 256 265 254 242 240 237 238 243
290 291 293 294 296 298 300 303 305 308 311 312 314 316 317 317 320 323 324 327 329 333 335 334 336 334 330 316 306 286 251 259 274 279 285 290 285 261 237 234 235 236 238 240 240 243 264 269 262 263 261 261 285 304 305 190 197 227 251 258 266 274 271 264 265 257 248 246 245 248 259 250 242 249 257 255 256 255 255 255 251 255 257 250 246 245 246 247
287 288 290 291 292 294 295 298 299 301 303 305 308 307 310 311 313 317 319 321 323 326 328 328 330 329 323 312 303 282 267 273 280 280 283 284 276 262 245 238 238 238 238 240 239 233 238 257 270 270 287 293 298 303 296 261 223 232 265 276 281 284 282 273 259 249 243 243 239 239 249 250 250 257 262 257 258 260 256 253 248 245 249 249 247 248 249 250
284 285 287 289 289 291 292 294 294 296 298 299 300 301 304 304 307 311 312 315 317 319 322 323 327 326 317 306 278 257 287 290 281 279 283 284 273 256 247 243 241 241 239 240 237 232 231 247 267 275 293 295 292 285 267 240 258 290 303 301 294 287 283 274 263 252 242 238 229 222 242 253 253 251 256 257 259 264 256 249 246 241 242 246 246 245 248 251
283 283 284 286 287 289 289 291 292 292 293 294 295 296 297 298 301 304 305 308 309 312 316 318 322 321 310 293 240 249 290 292 284 284 281 285 281 261 250 244 244 243 238 238 239 238 233 239 255 270 281 279 300 291 257 235 271 291 311 307 287 280 276 263 257 251 238 237 226 217 247 261 253 233 243 256 259 257 251 245 243 239 238 242 244 245 244 247
284 283 283 284 285 286 287 289 290 290 291 291 292 292 294 295 295 297 299 301 303 306 308 312 317 315 307 276 252 266 288 288 285 284 279 281 279 268 257 246 245 243 237 236 241 245 241 243 248 252 259 270 302 299 261 269 293 295 305 303 284 279 273 257 249 240 224 228 215 199 262 262 236 228 242 257 259 250 247 245 241 238 238 239 242 245 244 246
286 286 286 286 286 287 287 288 288 289 289 289 290 290 292 293 293 294 294 295 298 300 302 307 310 309 296 268 272 284 288 284 282 280 277 276 272 265 258 249 244 240 238 236 237 244 246 251 250 244 254 268 282 278 283 295 290 280 267 259 280 290 272 256 248 227 208 200 182 163 248 254 230 232 241 258 260 246 239 241 239 237 237 237 240 244 246 245
285 286 288 289 289 289 289 290 290 289 289 289 289 290 291 292 293 294 293 294 295 297 299 301 304 301 274 272 287 288 280 279 276 272 272 271 266 260 255 250 246 241 241 242 243 249 250 254 255 252 257 252 254 274 291 290 265 258 277 253 256 279 271 271 247 190 181 180 171 158 254 254 255 248 243 253 250 235 227 234 237 233 234 238 242 246 248 246
284 285 287 288 290 290 290 292 292 291 291 290 290 290 291 291 292 293 294 294 293 294 296 296 295 288 265 276 287 283 277 273 268 270 271 267 262 257 251 246 247 247 246 248 248 252 253 252 247 245 257 245 244 271 290 275 251 214 256 264 230 228 261 281 199 169 172 175 175 164 252 252 256 261 257 251 237 224 219 231 235 232 234 238 244 250 250 249
286 286 287 289 290 290 291 292 293 292 291 291 291 291 291 291 290 291 291 291 292 292 291 289 284 273 257 274 279 276 272 265 265 274 274 267 259 250 249 249 252 252 249 250 251 251 249 246 241 238 243 236 215 228 261 271 267 208 194 249 242 236 265 271 204 187 176 135 185 193 232 257 238 247 255 233 217 214 216 231 236 237 240 242 248 251 250 249
286 287 289 290 291 292 292 294 294 293 293 293 293 293 293 292 291 290 289 288 287 285 281 274 271 264 251 266 271 267 267 265 270 278 274 266 255 247 249 249 249 251 249 250 250 244 237 230 225 239 236 228 211 205 235 256 258 236 208 237 242 240 259 259 274 223 192 140 196 212 230 253 250 247 257 240 215 208 213 233 242 248 253 255 257 256 253 250
285 287 289 290 290 291 292 293 293 293 294 295 296 297 296 296 295 292 288 283 277 275 271 240 214 247 255 253 253 254 263 270 274 280 275 260 250 246 241 237 239 242 241 242 243 225 214 219 204 232 245 218 214 198 204 228 234 249 241 254 261 249 253 254 276 218 192 184 216 218 231 248 253 256 260 260 251 233 227 237 248 256 259 261 261 259 257 255
286 288 289 290 290 290 290 292 292 293 294 295 297 298 298 299 298 291 280 267 247 237 262 218 191 204 248 235 234 242 257 269 274 275 268 252 242 237 227 225 218 210 213 214 223 201 187 198 199 222 247 220 210 204 214 231 239 259 266 269 271 271 267 262 273 202 180 197 224 222 233 248 254 251 248 254 256 254 248 245 248 254 258 261 261 259 257 256
289 291 291 291 291 291 291 292 292 293 295 295 297 300 303 304 299 288 263 245 239 244 258 239 214 227 240 238 243 249 257 266 270 265 263 251 232 224 215 212 200 203 219 200 188 186 180 187 206 221 235 225 214 215 223 234 243 255 265 268 266 269 270 270 279 230 182 193 225 227 236 248 255 255 249 251 254 257 256 253 251 253 258 261 263 262 260 259
293 293 293 293 293 292 293 294 294 294 297 297 300 304 302 290 283 282 269 263 265 263 261 255 239 236 243 246 246 251 257 263 263 257 258 241 216 209 202 196 184 205 219 213 210 185 186 211 221 226 238 239 234 234 235 239 244 251 257 267 271 264 266 273 279 233 181 198 238 241 248 254 259 261 257 254 252 252 252 254 256 256 260 263 266 265 263 263
299 298 298 298 295 295 295 296 296 296 298 299 300 299 281 276 276 274 280 280 274 269 263 258 248 240 242 244 245 251 252 252 251 245 243 226 206 202 195 186 194 217 197 200 224 224 216 232 232 235 246 252 251 249 250 255 256 260 264 274 274 267 274 277 274 205 156 200 250 257 261 261 264 263 260 255 248 248 249 250 254 257 260 263 266 265 264 264
305 305 305 305 303 303 302 304 304 301 302 301 299 294 283 283 281 276 279 275 272 268 258 250 245 241 242 241 245 248 240 238 240 236 237 224 201 200 199 185 208 224 186 186 209 222 232 231 230 238 247 250 252 242 232 259 262 248 249 262 263 260 270 274 266 168 162 205 244 267 270 265 268 265 259 255 250 251 251 251 254 256 258 260 263 264 264 257
311 311 310 314 315 314 316 319 318 315 314 312 306 297 291 291 285 287 286 270 268 261 254 254 246 241 242 241 246 242 233 236 236 233 236 221 195 197 209 203 214 227 213 208 212 228 242 230 205 225 236 236 242 233 205 232 257 239 219 229 251 255 252 255 267 268 212 229 243 282 286 267 250 250 254 251 247 248 248 250 253 255 257 259 261 262 259 249
315 315 315 321 324 327 330 330 335 340 333 327 319 303 302 303 288 306 312 278 261 235 243 251 240 239 239 236 238 232 229 237 232 232 232 214 195 189 206 208 211 227 225 222 225 239 248 237 203 208 219 215 225 232 197 194 257 260 211 216 240 254 258 261 287 336 333 278 256 31 309 276 209 217 247 248 228 236 237 237 244 250 255 258 260 260 256 245
318 319 321 323 326 332 336 339 341 339 335 326 323 307 290 288 285 318 336 287 264 178 170 211 217 230 229 224 220 208 223 243 225 226 221 207 200 193 192 200 206 233 225 222 238 245 241 215 202 203 213 211 220 246 204 184 250 271 224 218 241 255 264 265 286 329 255 263 252 92 347 288 261 217 240 248 211 220 226 224 234 242 250 255 258 260 256 241
314 317 319 319 323 329 332 337 332 332 332 314 317 310 267 247 264 328 352 287 266 154 138 181 186 191 198 204 193 179 227 229 197 213 204 197 200 197 207 199 194 227 209 184 250 237 169 167 173 197 214 217 222 245 216 185 229 262 229 215 234 250 261 255 258 237 234 293 276 172 140 278 282 246 206 221 217 227 233 227 233 238 244 251 257 259 253 240
303 307 309 311 315 317 321 325 330 341 328 306 301 256 228 192 203 2 360 283 264 122 130 174 174 195 182 171 179 179 347 111 148 202 194 193 195 192 220 222 215 220 175 179 235 253 126 172 192 196 199 218 220 234 203 178 212 244 193 99 104 126 280 108 213 245 284 334 280 197 144 250 282 271 175 199 207 225 235 229 232 236 240 246 251 254 251 245
294 296 297 300 305 306 310 311 321 346 329 312 285 233 196 172 209 18 278 258 220 107 127 160 161 190 159 153 190 212 327 57 70 186 181 191 193 188 227 232 242 257 218 216 233 261 32 175 214 190 183 221 213 184 81 179 211 216 148 76 81 86 33 90 227 262 347 291 247 191 151 216 278 278 154 180 201 217 230 229 230 231 237 243 245 248 249 248
287 291 292 292 293 296 302 301 300 324 338 331 270 208 170 181 206 44 238 253 329 82 115 146 159 156 147 139 214 232 236 111 100 139 160 191 197 201 281 263 259 281 269 262 259 265 253 95 13 222 197 201 136 88 20 116 166 149 126 72 54 312 18 90 239 103 354 270 241 190 180 193 271 286 137 173 199 200 211 220 230 232 237 244 246 246 244 242
282 285 285 284 286 289 290 287 288 299 323 327 222 176 163 182 70 215 232 268 3 163 126 147 166 143 159 175 200 205 209 209 144 148 168 185 191 206 248 246 197 321 299 284 272 267 250 172 103 238 188 129 100 90 10 38 100 120 117 120 15 309 9 28 300 101 231 267 224 177 186 192 233 254 144 209 205 193 203 202 215 226 234 243 247 248 242 232
277 278 277 278 281 282 276 274 280 286 296 286 187 171 182 228 217 230 236 36 32 203 146 167 177 159 186 210 212 175 181 204 170 171 186 160 175 199 207 206 162 142 267 243 244 255 248 233 204 184 192 171 155 109 25 354 313 146 132 135 141 281 303 317 247 146 226 255 224 178 183 200 237 246 232 248 228 201 208 197 204 216 224 238 246 246 238 224
270 270 272 270 270 272 271 273 274 269 276 262 182 152 17 239 228 236 226 77 254 205 76 139 173 179 190 208 221 175 187 221 169 181 195 163 193 217 216 227 208 226 251 214 236 228 262 265 187 159 251 193 176 174 206 265 192 179 160 149 168 207 245 247 236 242 244 254 258 198 179 212 265 250 212 230 237 226 226 215 217 226 227 241 250 247 233 220
269 268 266 264 265 266 263 267 267 261 262 232 169 116 65 222 247 269 178 210 240 255 18 52 152 190 206 213 194 153 184 231 159 176 198 167 199 228 213 225 223 240 282 231 277 198 243 292 185 167 206 181 183 207 209 158 161 196 176 160 194 190 214 241 228 246 259 275 278 188 166 216 274 232 193 212 229 232 233 226 222 229 236 248 254 246 228 220
275 274 270 265 264 260 254 257 261 256 240 191 149 112 178 219 256 270 251 247 260 267 257 54 152 193 229 234 203 178 206 227 163 168 199 189 203 217 201 206 205 206 182 206 259 179 228 271 199 169 161 163 185 217 204 125 129 217 149 152 233 202 190 247 253 249 277 316 275 210 200 239 268 278 241 226 238 236 232 225 219 221 232 244 247 233 227 224
274 275 274 269 263 258 253 254 257 250 220 175 139 173 204 221 229 202 259 239 255 286 253 243 214 198 238 232 204 212 217 232 178 168 205 214 224 227 208 192 192 195 190 190 226 190 227 279 179 153 6 170 188 225 193 168 192 186 143 191 223 175 165 222 265 274 296 285 272 257 256 274 301 289 252 225 238 243 234 227 219 214 226 237 238 229 233 231
273 270 269 266 264 262 255 252 251 237 205 174 162 208 205 230 226 220 274 294 305 318 302 242 221 195 237 238 208 206 190 201 194 174 188 208 222 220 212 213 188 190 203 204 221 232 223 274 221 169 256 254 288 331 267 221 152 129 178 213 187 35 96 173 263 302 269 257 272 276 273 284 291 281 266 194 225 237 231 224 215 213 222 231 232 232 238 237
280 277 268 266 266 262 256 253 243 218 190 170 213 222 211 221 214 216 250 278 299 299 266 254 228 201 238 254 240 197 173 187 188 174 199 208 215 198 189 212 195 190 207 209 222 264 216 260 267 156 7 329 6 339 289 293 138 137 220 247 107 95 231 162 179 234 246 251 269 280 283 278 260 261 297 298 224 216 220 218 214 219 224 229 233 236 239 237
286 280 267 269 268 259 257 250 226 197 176 174 217 221 222 227 230 240 255 271 290 274 259 261 252 236 248 262 276 225 180 196 192 180 205 205 220 196 173 193 202 194 203 199 205 247 187 229 261 14 11 349 26 256 208 227 279 48 7 350 84 160 175 176 191 200 227 244 265 281 286 276 259 249 277 273 224 197 207 215 216 223 232 235 238 241 238 232
286 272 259 270 272 265 251 230 201 178 171 209 214 224 244 248 255 249 244 246 251 257 259 265 274 279 279 295 306 295 221 213 210 208 215 201 230 230 178 184 199 199 203 198 202 223 168 218 238 315 4 246 200 207 188 191 201 171 209 255 221 201 147 218 249 217 214 229 249 261 266 271 269 166 218 285 212 193 200 204 217 228 240 244 247 253 247 237
280 260 261 268 278 271 213 199 181 173 208 234 234 241 245 268 294 269 255 252 250 270 290 304 296 291 298 304 308 310 293 266 253 234 226 215 235 260 180 183 194 177 184 193 205 209 188 213 223 221 255 232 228 214 201 208 205 183 197 209 207 203 189 244 249 227 216 223 233 240 253 263 262 93 48 1 55 189 206 195 217 232 241 250 256 261 257 250
263 253 263 261 267 200 183 181 176 225 213 222 248 262 267 270 274 271 273 272 270 280 299 313 286 267 277 270 272 292 293 297 302 278 278 277 255 274 244 207 212 176 153 182 212 204 188 175 220 229 232 246 256 230 206 230 236 224 217 211 211 205 193 220 236 234 241 226 226 242 250 256 262 350 347 310 316 322 307 291 289 273 258 259 257 258 262 261
246 253 260 259 256 211 183 175 262 211 225 262 263 274 270 258 266 268 261 253 250 251 245 254 254 246 250 247 251 266 260 261 268 260 277 289 280 313 339 321 297 250 181 231 235 203 172 131 216 241 259 292 291 292 356 335 264 250 250 219 214 215 213 227 237 248 253 229 226 247 247 258 276 291 269 275 281 279 270 265 270 278 280 277 266 261 266 265
254 260 255 248 235 209 193 192 227 210 230 250 257 261 254 248 250 253 249 228 218 217 226 234 233 233 236 235 246 255 250 251 245 243 267 276 275 316 338 352 1 354 284 346 11 271 272 219 212 237 254 280 282 272 279 328 356 235 242 230 226 228 231 249 268 266 258 245 244 255 254 262 281 282 252 270 279 271 265 267 270 277 283 278 269 266 266 263
269 261 245 227 209 202 206 213 219 221 218 226 235 238 243 250 236 235 242 241 230 221 227 234 225 229 239 243 254 253 245 247 244 244 266 267 274 294 299 318 355 1 314 340 1 3 316 307 270 236 233 233 241 246 248 254 182 213 231 237 240 233 227 238 254 249 248 243 242 252 263 268 279 288 286 281 280 280 280 282 283 285 284 280 275 273 269 262
266 247 226 213 201 206 221 226 225 232 212 219 233 227 231 241 235 234 237 241 240 232 232 237 223 221 233 235 247 252 243 240 235 232 238 240 257 267 258 268 298 288 289 318 339 349 351 310 287 254 244 241 238 251 269 274 257 248 238 228 227 227 227 230 239 241 248 254 248 249 264 270 274 281 282 279 277 276 278 282 284 280 278 278 277 273 268 261
252 251 211 206 202 215 232 231 227 231 207 212 212 194 226 235 240 236 228 228 235 231 232 239 223 221 230 229 237 245 241 241 236 233 238 238 242 248 247 254 268 271 274 289 300 285 203 227 243 240 240 246 248 253 263 266 259 255 251 241 231 224 220 223 235 239 242 253 253 249 259 265 263 261 266 271 272 273 276 278 279 278 277 278 276 269 262 260
237 262 244 252 229 212 234 236 236 240 219 213 205 199 228 234 230 226 223 228 232 224 225 234 218 220 229 230 233 235 233 242 240 232 235 238 241 252 254 251 250 255 260 258 203 197 209 231 230 230 235 238 243 247 249 253 254 251 249 247 243 235 221 218 232 237 236 243 254 254 252 256 258 256 258 264 270 277 281 279 279 280 280 278 274 265 261 265
253 276 274 283 294 262 280 286 272 258 239 233 230 218 228 235 232 228 220 227 234 218 218 236 231 224 226 227 232 235 231 237 241 230 223 229 232 237 250 253 244 239 236 232 209 185 195 233 220 226 239 236 236 242 243 246 251 253 252 248 245 246 238 230 235 238 240 247 253 253 251 253 258 258 257 261 271 278 280 278 276 276 276 275 273 267 262 265
260 281 300 307 304 288 289 289 286 275 255 247 244 231 237 243 243 243 229 226 240 216 208 230 239 233 228 228 230 235 232 232 242 241 227 224 226 223 231 241 243 231 209 212 218 188 195 220 209 217 241 240 235 240 241 243 248 251 254 254 252 255 252 246 246 248 250 252 250 250 253 256 256 256 259 268 274 275 273 272 272 271 271 271 273 271 263 262
257 274 304 316 304 290 284 270 257 269 255 234 234 244 249 249 249 258 253 240 243 244 232 241 246 243 242 240 237 240 239 234 238 242 239 238 234 222 216 213 215 220 202 198 207 188 195 220 215 217 242 238 228 234 238 241 245 248 254 260 257 250 247 246 247 245 245 250 252 252 253 252 251 256 263 268 265 262 262 265 267 268 268 268 270 270 263 262
269 279 294 305 287 267 276 280 277 275 264 247 251 251 255 262 258 256 260 249 242 246 249 250 255 262 258 252 250 255 256 252 252 253 253 256 253 243 237 230 218 219 207 191 207 199 193 213 216 216 241 239 223 230 237 240 244 244 238 240 243 245 247 249 249 246 243 244 248 250 248 249 254 259 262 261 257 254 254 256 259 263 267 267 267 269 267 266
Height
1553 1553 1552 1551 1551 1550 1550 1549 1549 1548 1547 1547 1546 1546 1545 1544 1543 1543 1542 1541 1541 1540 1539 1539 1538 1538 1537 1537 1536 1536 1536 1535 1535 1534 1533 1533 1534 1533 1533 1533 1533 1533 1533 1533 1532 1532 1532 1533 1533 1533 1534 1534 1533 1533 1533 1533 1533 1535 1534 1536 1536 1530 1525 1518 1515 1515 1514 1515 1515 1516 1516 1516 1517 1516 1517 1517 1517 1517 1517 1516 1516 1516 1516 1516 1515 1515 1514 1514
1553 1553 1552 1552 1551 1550 1550 1549 1549 1548 1548 1547 1546 1546 1545 1544 1544 1543 1542 1542 1541 1540 1539 1539 1538 1537 1537 1536 1536 1536 1535 1535 1534 1532 1532 1532 1533 1533 1533 1533 1533 1533 1533 1533 1533 1533 1533 1533 1533 1534 1534 1533 1533 1532 1532 1532 1533 1533 1532 1533 1530 1524 1518 1514 1512 1512 1512 1514 1514 1514 1515 1516 1516 1515 1516 1516 1515 1516 1515 1513 1514 1514 1514 1513 1513 1513 1511 1511
1553 1552 1552 1552 1551 1550 1550 1549 1549 1548 1548 1547 1546 1546 1545 1544 1544 1543 1543 1542 1541 1540 1539 1539 1538 1537 1537 1536 1535 1535 1535 1534 1532 1530 1530 1531 1532 1532 1533 1533 1533 1533 1533 1533 1533 1533 1533 1534 1534 1534 1534 1533 1532 1531 1531 1531 1531 1530 1531 1532 1526 1518 1515 1512 1511 1511 1512 1513 1513 1514 1514 1514 1515 1514 1515 1515 1514 1513 1512 1510 1511 1510 1509 1510 1509 1510 1509 1509
1552 1552 1552 1551 1551 1551 1550 1550 1549 1548 1548 1547 1546 1546 1545 1544 1544 1543 1542 1542 1541 1540 1539 1539 1538 1537 1537 1536 1535 1535 1534 1533 1530 1528 1528 1529 1530 1531 1531 1532 1533 1533 1533 1533 1533 1533 1533 1533 1534 1534 1533 1532 1531 1530 1530 1530 1529 1528 1528 1528 1521 1516 1516 1513 1511 1512 1512 1513 1513 1513 1513 1513 1513 1514 1513 1513 1514 1511 1507 1506 1506 1505 1505 1506 1506 1506 1506 1506
1551 1551 1551 1551 1551 1550 1550 1550 1549 1548 1548 1547 1546 1546 1545 1544 1544 1543 1542 1541 1541 1540 1539 1539 1538 1537 1536 1535 1535 1534 1535 1534 1529 1527 1527 1527 1528 1529 1530 1531 1532 1532 1533 1533 1533 1533 1533 1533 1533 1533 1533 1531 1530 1529 1528 1526 1527 1526 1523 1522 1518 1516 1516 1513 1512 1512 1512 1513 1513 1513 1513 1512 1512 1512 1510 1512 1511 1504 1502 1504 1503 1502 1502 1503 1503 1503 1504 1503
1550 1550 1550 1550 1550 1550 1549 1549 1549 1548 1548 1547 1547 1546 1545 1544 1544 1543 1542 1541 1541 1540 1539 1538 1537 1537 1536 1535 1535 1534 1535 1533 1527 1526 1527 1527 1528 1528 1529 1530 1530 1531 1532 1532 1532 1533 1532 1533 1533 1533 1532 1530 1529 1527 1525 1523 1524 1525 1521 1518 1517 1516 1514 1513 1512 1512 1512 1513 1513 1513 1512 1511 1511 1510 1508 1508 1503 1497 1500 1503 1502 1501 1501 1501 1500 1500 1500 1500
1549 1549 1549 1549 1549 1549 1548 1549 1548 1548 1548 1547 1546 1545 1545 1544 1543 1543 1542 1541 1540 1540 1539 1538 1537 1536 1535 1535 1534 1534 1533 1530 1526 1526 1527 1527 1528 1527 1528 1529 1530 1530 1531 1532 1532 1532 1532 1532 1532 1531 1530 1529 1527 1524 1522 1521 1522 1523 1520 1517 1515 1514 1513 1512 1512 1511 1511 1512 1511 1512 1511 1510 1510 1508 1507 1503 1496 1496 1499 1500 1501 1500 1500 1500 1499 1498 1497 1497
1548 1548 1548 1548 1548 1547 1547 1547 1547 1547 1547 1546 1546 1545 1544 1543 1543 1542 1541 1541 1540 1539 1539 1538 1537 1536 1535 1534 1533 1533 1531 1527 1526 1527 1526 1527 1527 1527 1528 1528 1529 1529 1530 1531 1531 1531 1532 1531 1531 1530 1529 1527 1525 1523 1522 1522 1522 1521 1519 1516 1514 1513 1511 1511 1511 1510 1510 1510 1510 1510 1509 1507 1507 1507 1505 1497 1493 1495 1497 1497 1499 1498 1497 1498 1497 1496 1495 1495
1546 1546 1546 1546 1546 1546 1546 1546 1546 1546 1545 1545 1545 1544 1544 1543 1542 1541 1541 1540 1539 1538 1537 1537 1536 1535 1534 1533 1533 1532 1528 1525 1526 1526 1525 1526 1526 1526 1526 1527 1528 1528 1529 1529 1530 1530 1530 1530 1530 1529 1528 1526 1525 1523 1522 1524 1522 1518 1516 1515 1513 1512 1511 1511 1510 1509 1508 1508 1509 1508 1506 1505 1506 1507 1500 1490 1490 1493 1494 1495 1495 1496 1495 1494 1494 1493 1492 1491
1544 1545 1545 1545 1545 1545 1544 1544 1544 1544 1544 1543 1543 1543 1542 1542 1541 1540 1540 1539 1538 1537 1536 1536 1535 1534 1533 1532 1533 1530 1526 1525 1526 1525 1525 1525 1524 1524 1525 1525 1526 1527 1527 1528 1528 1529 1529 1529 1528 1528 1528 1526 1525 1523 1522 1523 1520 1516 1516 1515 1513 1512 1510 1509 1508 1506 1507 1506 1506 1506 1505 1503 1505 1507 1495 1484 1487 1490 1491 1491 1491 1493 1492 1490 1491 1489 1489 1488
1542 1543 1543 1543 1543 1543 1543 1543 1542 1542 1542 1542 1541 1541 1540 1540 1540 1539 1538 1538 1537 1536 1535 1534 1533 1533 1532 1531 1531 1528 1524 1525 1524 1524 1524 1523 1523 1523 1523 1524 1524 1525 1526 1526 1526 1527 1527 1527 1527 1528 1527 1526 1524 1522 1520 1519 1518 1516 1517 1515 1512 1512 1509 1506 1504 1503 1504 1503 1502 1503 1504 1502 1504 1503 1488 1480 1486 1488 1488 1487 1487 1489 1488 1487 1487 1486 1485 1483
1540 1540 1540 1540 1540 1540 1540 1540 1540 1540 1540 1540 1539 1539 1539 1538 1538 1537 1537 1536 1535 1534 1534 1533 1532 1531 1530 1529 1527 1524 1523 1523 1523 1523 1522 1522 1522 1521 1522 1522 1522 1523 1524 1524 1525 1524 1525 1526 1526 1527 1526 1525 1523 1521 1519 1518 1518 1517 1518 1516 1511 1509 1506 1501 1499 1499 1501 1501 1499 1504 1507 1503 1499 1493 1482 1480 1484 1486 1486 1485 1485 1485 1484 1484 1483 1483 1482 1479
1538 1538 1538 1538 1538 1538 1538 1538 1538 1538 1538 1538 1537 1537 1537 1536 1536 1535 1535 1534 1533 1533 1532 1531 1530 1529 1529 1526 1522 1522 1522 1521 1521 1521 1520 1520 1520 1519 1520 1520 1520 1521 1522 1522 1523 1522 1524 1524 1525 1525 1524 1524 1522 1521 1519 1517 1518 1516 1516 1517 1512 1511 1504 1494 1493 1494 1496 1499 1497 1504 1508 1497 1488 1483 1480 1480 1481 1482 1483 1482 1482 1482 1481 1481 1480 1479 1477 1476
1536 1536 1536 1536 1536 1536 1535 1535 1535 1535 1535 1535 1535 1535 1534 1534 1533 1533 1533 1532 1531 1531 1530 1529 1529 1528 1527 1523 1520 1520 1520 1519 1519 1518 1518 1518 1518 1518 1518 1518 1519 1520 1520 1521 1521 1521 1522 1522 1523 1523 1522 1522 1521 1520 1519 1517 1517 1515 1516 1515 1513 1516 1505 1489 1488 1489 1494 1498 1495 1503 1507 1492 1481 1479 1477 1478 1478 1479 1479 1478 1478 1478 1477 1477 1476 1474 1472 1471
1534 1534 1534 1534 1534 1533 1533 1533 1532 1532 1532 1532 1532 1532 1532 1531 1530 1530 1530 1529 1529 1528 1528 1527 1526 1526 1524 1520 1518 1518 1517 1517 1517 1515 1516 1516 1516 1517 1516 1517 1518 1518 1519 1519 1519 1520 1520 1521 1521 1521 1520 1520 1520 1521 1520 1518 1514 1512 1518 1517 1510 1513 1504 1488 1486 1485 1489 1496 1495 1501 1503 1490 1480 1476 1473 1474 1475 1476 1476 1474 1475 1474 1474 1473 1471 1470 1468 1467
1533 1533 1532 1532 1532 1531 1531 1531 1530 1529 1529 1529 1529 1529 1528 1528 1527 1527 1527 1526 1526 1526 1525 1525 1523 1524 1523 1518 1515 1515 1515 1515 1514 1514 1515 1515 1515 1515 1515 1516 1516 1516 1517 1517 1518 1519 1519 1519 1519 1519 1519 1518 1519 1520 1521 1522 1515 1510 1515 1516 1509 1508 1502 1491 1487 1484 1485 1492 1494 1495 1493 1483 1476 1473 1470 1471 1472 1473 1473 1472 1471 1471 1470 1469 1467 1465 1464 1463
1531 1531 1531 1530 1530 1529 1529 1529 1528 1527 1527 1526 1526 1526 1525 1525 1524 1524 1523 1523 1522 1522 1522 1522 1521 1522 1519 1515 1513 1512 1511 1512 1513 1513 1513 1513 1513 1513 1514 1515 1515 1515 1515 1516 1517 1517 1517 1518 1518 1517 1516 1516 1517 1518 1525 1528 1520 1510 1508 1509 1505 1501 1500 1494 1488 1485 1485 1489 1491 1491 1488 1480 1472 1470 1470 1470 1471 1471 1471 1470 1469 1468 1466 1465 1463 1461 1460 1459
1529 1529 1529 1529 1528 1527 1527 1527 1526 1525 1525 1524 1524 1523 1522 1522 1521 1520 1519 1519 1519 1519 1520 1519 1520 1523 1517 1510 1509 1508 1509 1510 1511 1511 1512 1512 1512 1512 1513 1513 1513 1514 1514 1515 1514 1514 1516 1515 1515 1516 1515 1514 1514 1516 1524 1521 1512 1507 1504 1504 1501 1496 1496 1492 1486 1484 1485 1487 1488 1490 1488 1479 1471 1470 1470 1469 1469 1468 1467 1467 1466 1463 1463 1460 1458 1457 1456 1454
1528 1527 1527 1527 1526 1525 1525 1524 1524 1523 1522 1522 1522 1521 1520 1519 1518 1517 1515 1515 1515 1515 1515 1513 1514 1516 1511 1505 1505 1506 1507 1508 1508 1509 1510 1510 1511 1511 1511 1512 1512 1513 1514 1514 1512 1511 1513 1513 1515 1517 1513 1510 1508 1509 1511 1505 1500 1500 1498 1499 1498 1497 1494 1485 1481 1481 1483 1487 1488 1486 1483 1475 1469 1469 1468 1466 1466 1465 1464 1463 1462 1460 1458 1455 1452 1451 1451 1450
1525 1525 1525 1524 1524 1523 1522 1522 1522 1521 1520 1520 1519 1519 1518 1517 1516 1514 1512 1511 1509 1508 1508 1507 1505 1505 1504 1502 1503 1505 1505 1505 1505 1506 1507 1508 1509 1510 1510 1511 1511 1512 1511 1510 1510 1509 1510 1513 1514 1510 1503 1500 1500 1500 1498 1496 1496 1496 1495 1495 1495 1496 1491 1480 1478 1479 1478 1483 1482 1477 1475 1470 1465 1464 1463 1463 1462 1461 1460 1459 1457 1456 1453 1450 1447 1445 1445 1444
1523 1523 1522 1522 1522 1521 1520 1520 1519 1519 1519 1518 1518 1518 1517 1517 1516 1513 1511 1507 1505 1504 1503 1503 1503 1501 1500 1500 1501 1501 1502 1502 1502 1502 1504 1505 1507 1508 1508 1508 1510 1510 1507 1507 1508 1507 1508 1510 1505 1497 1492 1493 1495 1493 1493 1493 1493 1492 1493 1494 1494 1494 1487 1479 1477 1476 1475 1479 1476 1471 1472 1469 1463 1461 1459 1459 1458 1456 1455 1454 1451 1450 1449 1445 1442 1441 1439 1440
1522 1521 1520 1520 1519 1518 1518 1518 1517 1517 1517 1516 1516 1516 1516 1516 1515 1514 1511 1505 1501 1501 1501 1500 1500 1498 1498 1498 1497 1499 1500 1499 1499 1497 1500 1503 1503 1504 1503 1504 1506 1504 1502 1505 1508 1508 1508 1503 1494 1489 1490 1492 1491 1490 1491 1491 1491 1492 1492 1495 1496 1491 1484 1479 1475 1474 1476 1479 1476 1472 1472 1467 1460 1458 1456 1454 1453 1451 1449 1447 1445 1444 1443 1441 1438 1436 1435 1437
1521 1519 1519 1518 1517 1517 1516 1515 1516 1515 1515 1515 1515 1515 1515 1514 1514 1512 1511 1506 1496 1495 1496 1494 1494 1493 1494 1495 1494 1496 1496 1493 1493 1492 1495 1498 1498 1500 1500 1500 1500 1498 1500 1503 1503 1506 1503 1493 1487 1488 1490 1490 1489 1488 1489 1491 1491 1491 1492 1497 1495 1487 1487 1484 1476 1475 1477 1477 1475 1473 1472 1466 1458 1455 1451 1447 1444 1443 1443 1442 1441 1439 1438 1436 1433 1431 1432 1433
1519 1519 1518 1517 1517 1516 1514 1515 1514 1513 1513 1514 1514 1514 1513 1513 1513 1511 1509 1503 1491 1486 1487 1487 1488 1487 1487 1489 1489 1491 1489 1487 1487 1487 1489 1491 1493 1496 1496 1495 1496 1497 1497 1495 1495 1494 1486 1481 1483 1486 1486 1486 1487 1487 1488 1493 1492 1487 1489 1493 1489 1482 1483 1481 1475 1474 1475 1474 1473 1474 1471 1459 1452 1451 1444 1439 1438 1437 1438 1438 1437 1435 1432 1430 1428 1427 1428 1428
1519 1519 1517 1516 1516 1514 1515 1514 1512 1513 1513 1512 1513 1513 1513 1513 1512 1510 1509 1502 1488 1480 1482 1483 1482 1481 1480 1483 1484 1484 1484 1482 1482 1482 1482 1484 1488 1491 1491 1492 1494 1494 1492 1491 1491 1486 1477 1478 1482 1483 1483 1483 1485 1485 1487 1491 1490 1485 1484 1483 1480 1478 1478 1477 1475 1478 1481 1480 1475 1476 1474 1450 1436 1443 1438 1432 1435 1433 1434 1435 1433 1432 1428 1425 1424 1422 1423 1424
1519 1518 1516 1516 1515 1514 1515 1513 1512 1513 1512 1512 1513 1512 1513 1512 1512 1511 1509 1504 1487 1476 1479 1479 1477 1476 1476 1477 1477 1481 1484 1479 1476 1478 1479 1482 1484 1486 1488 1489 1489 1488 1487 1487 1486 1479 1474 1477 1478 1480 1483 1482 1485 1486 1485 1487 1490 1487 1481 1477 1476 1476 1477 1478 1478 1482 1485 1483 1474 1476 1484 1459 1429 1433 1436 1430 1433 1431 1431 1432 1430 1429 1424 1421 1420 1418 1418 1421
1518 1517 1516 1516 1515 1515 1514 1513 1514 1512 1511 1513 1512 1512 1513 1510 1512 1511 1509 1507 1487 1469 1473 1475 1474 1473 1472 1473 1474 1480 1483 1475 1472 1476 1477 1480 1482 1484 1486 1484 1484 1484 1482 1486 1487 1475 1470 1476 1478 1479 1481 1482 1486 1485 1480 1483 1489 1485 1478 1477 1476 1476 1478 1478 1479 1484 1482 1480 1476 1473 1485 1476 1436 1425 1429 1426 1430 1431 1429 1430 1426 1424 1421 1418 1417 1414 1415 1417
1516 1517 1516 1515 1515 1514 1514 1514 1513 1512 1512 1512 1510 1513 1512 1511 1514 1510 1514 1515 1484 1461 1468 1472 1471 1472 1472 1475 1474 1475 1477 1472 1473 1476 1475 1478 1481 1482 1483 1479 1480 1481 1479 1485 1486 1473 1469 1476 1476 1476 1481 1483 1481 1478 1475 1479 1483 1479 1477 1477 1477 1477 1479 1479 1480 1484 1481 1483 1484 1472 1480 1482 1441 1417 1423 1423 1426 1430 1425 1424 1422 1418 1417 1414 1413 1412 1412 1414
1515 1515 1514 1514 1513 1513 1514 1513 1513 1512 1512 1511 1511 1513 1511 1514 1513 1508 1520 1514 1472 1455 1467 1469 1470 1473 1472 1475 1476 1474 1474 1473 1474 1475 1475 1478 1479 1480 1481 1478 1479 1479 1478 1480 1477 1471 1471 1475 1473 1474 1479 1477 1473 1474 1475 1476 1476 1476 1478 1477 1478 1479 1479 1481 1482 1484 1487 1486 1482 1473 1477 1480 1442 1411 1421 1426 1426 1427 1420 1417 1415 1412 1411 1409 1408 1409 1409 1411
1513 1513 1513 1513 1512 1512 1512 1511 1512 1512 1511 1511 1511 1511 1512 1514 1511 1515 1523 1500 1463 1459 1469 1467 1469 1471 1471 1476 1477 1475 1474 1473 1474 1475 1477 1479 1478 1479 1480 1479 1480 1480 1479 1478 1474 1472 1473 1474 1475 1474 1473 1470 1471 1477 1477 1477 1476 1477 1479 1478 1481 1482 1480 1484 1482 1483 1491 1479 1467 1467 1468 1475 1453 1418 1418 1423 1418 1417 1414 1413 1412 1409 1408 1405 1404 1405 1405 1407
1511 1512 1512 1511 1510 1511 1511 1510 1510 1511 1512 1512 1510 1512 1514 1512 1513 1519 1508 1477 1461 1466 1467 1467 1468 1467 1469 1471 1470 1472 1474 1473 1473 1474 1476 1478 1479 1481 1480 1480 1482 1484 1484 1482 1476 1472 1473 1476 1475 1471 1469 1470 1472 1476 1477 1478 1477 1476 1479 1479 1482 1484 1482 1487 1486 1489 1494 1470 1450 1452 1456 1468 1457 1422 1413 1413 1406 1407 1407 1408 1408 1406 1405 1402 1400 1401 1401 1403
1509 1509 1509 1508 1508 1509 1508 1508 1509 1511 1512 1511 1511 1512 1513 1514 1514 1504 1482 1465 1466 1466 1460 1464 1466 1465 1467 1466 1465 1468 1471 1471 1471 1472 1472 1476 1478 1478 1477 1475 1477 1482 1483 1480 1476 1472 1471 1469 1468 1468 1468 1468 1470 1475 1480 1481 1479 1478 1479 1482 1487 1489 1487 1490 1489 1489 1486 1463 1441 1443 1452 1455 1436 1411 1410 1409 1403 1404 1403 1402 1402 1401 1401 1399 1397 1398 1398 1399
1505 1506 1506 1505 1505 1506 1506 1506 1508 1510 1510 1510 1513 1513 1515 1520 1504 1478 1469 1471 1468 1461 1458 1460 1461 1462 1465 1465 1465 1466 1468 1468 1468 1470 1470 1472 1475 1474 1473 1471 1470 1473 1471 1471 1473 1473 1469 1462 1463 1469 1466 1462 1464 1470 1475 1473 1474 1477 1474 1478 1486 1488 1488 1489 1484 1478 1469 1453 1440 1442 1450 1443 1420 1405 1405 1402 1399 1400 1397 1398 1398 1396 1398 1397 1395 1395 1395 1396
1502 1502 1502 1501 1501 1502 1502 1503 1505 1507 1509 1509 1512 1515 1522 1521 1491 1466 1469 1471 1462 1459 1460 1459 1461 1463 1463 1463 1462 1461 1466 1467 1464 1469 1470 1471 1475 1473 1470 1469 1468 1468 1468 1471 1470 1470 1471 1460 1455 1460 1457 1454 1456 1455 1456 1458 1466 1470 1463 1467 1473 1471 1475 1476 1470 1464 1456 1447 1441 1444 1445 1432 1413 1401 1395 1392 1393 1393 1394 1395 1395 1394 1396 1395 1393 1393 1394 1394
1497 1497 1498 1497 1497 1498 1498 1499 1500 1504 1507 1506 1510 1517 1521 1511 1487 1474 1474 1468 1461 1460 1460 1461 1462 1465 1464 1461 1459 1457 1460 1462 1461 1466 1468 1468 1469 1466 1462 1461 1463 1465 1469 1475 1467 1463 1468 1454 1441 1447 1447 1447 1449 1446 1447 1454 1462 1463 1460 1465 1466 1458 1458 1461 1456 1449 1451 1455 1445 1439 1433 1415 1399 1392 1387 1391 1391 1389 1393 1392 1391 1393 1393 1392 1390 1390 1392 1392
1492 1492 1493 1491 1491 1493 1494 1495 1496 1500 1502 1502 1509 1514 1508 1492 1479 1474 1470 1464 1463 1461 1461 1464 1462 1465 1465 1460 1459 1457 1456 1458 1460 1463 1465 1464 1461 1457 1454 1453 1455 1458 1461 1465 1461 1457 1462 1450 1440 1447 1447 1446 1449 1446 1446 1450 1453 1458 1462 1461 1456 1450 1451 1457 1457 1447 1453 1462 1441 1425 1423 1410 1400 1390 1378 1384 1389 1387 1391 1390 1389 1391 1388 1387 1387 1387 1390 1390
1488 1488 1487 1484 1485 1488 1490 1491 1493 1496 1498 1499 1503 1499 1489 1478 1469 1466 1464 1462 1463 1461 1464 1468 1462 1462 1462 1457 1456 1456 1456 1457 1458 1460 1462 1460 1454 1448 1448 1447 1446 1449 1449 1451 1452 1448 1451 1448 1441 1447 1449 1448 1450 1449 1448 1446 1446 1453 1458 1452 1447 1451 1452 1455 1462 1457 1460 1464 1439 1420 1422 1419 1413 1396 1375 1379 1388 1385 1387 1387 1386 1387 1383 1383 1384 1385 1387 1387
1485 1484 1482 1478 1480 1483 1485 1488 1489 1490 1494 1497 1495 1486 1477 1470 1463 1462 1464 1463 1464 1464 1466 1467 1460 1455 1456 1455 1451 1450 1454 1456 1455 1458 1457 1452 1445 1436 1438 1442 1440 1441 1441 1445 1449 1444 1446 1449 1445 1447 1451 1450 1451 1452 1450 1448 1446 1448 1449 1447 1448 1455 1455 1455 1463 1462 1461 1463 1443 1424 1424 1418 1406 1393 1380 1383 1386 1382 1383 1383 1383 1383 1381 1382 1384 1384 1385 1386
1483 1482 1478 1474 1476 1479 1481 1484 1485 1486 1490 1492 1491 1481 1470 1464 1459 1461 1463 1463 1463 1464 1464 1462 1457 1453 1451 1451 1448 1447 1451 1451 1450 1453 1451 1446 1439 1429 1429 1434 1433 1435 1435 1439 1444 1441 1443 1449 1446 1448 1453 1452 1453 1454 1451 1449 1450 1451 1451 1451 1449 1450 1452 1450 1452 1451 1450 1454 1444 1433 1430 1409 1384 1380 1381 1380 1379 1378 1381 1381 1382 1382 1382 1383 1384 1383 1384 1385
1481 1480 1475 1471 1474 1476 1479 1482 1483 1485 1485 1483 1480 1473 1466 1463 1460 1460 1461 1461 1462 1462 1460 1458 1458 1457 1454 1452 1451 1448 1448 1447 1446 1449 1445 1439 1435 1427 1425 1427 1428 1431 1431 1433 1437 1438 1443 1446 1443 1448 1455 1452 1447 1445 1443 1441 1444 1449 1452 1453 1450 1448 1449 1448 1445 1439 1438 1445 1443 1440 1435 1403 1371 1372 1377 1374 1375 1377 1377 1379 1380 1381 1382 1383 1384 1384 1384 1384
1480 1478 1472 1470 1472 1474 1478 1481 1481 1481 1481 1477 1473 1469 1467 1466 1462 1460 1460 1461 1462 1460 1458 1458 1459 1461 1461 1461 1460 1454 1452 1450 1446 1445 1442 1436 1435 1431 1426 1424 1425 1427 1430 1435 1437 1437 1441 1441 1438 1445 1449 1444 1435 1431 1432 1431 1431 1437 1440 1440 1441 1442 1445 1449 1445 1433 1430 1435 1431 1433 1433 1398 1365 1369 1375 1372 1377 1378 1376 1379 1379 1379 1382 1382 1383 1384 1384 1383
1477 1474 1470 1470 1471 1471 1475 1479 1478 1478 1478 1474 1470 1467 1468 1467 1463 1462 1461 1461 1462 1460 1459 1459 1459 1461 1463 1463 1463 1461 1460 1460 1455 1450 1443 1436 1435 1433 1428 1425 1424 1424 1427 1432 1430 1428 1432 1434 1436 1437 1434 1430 1428 1426 1428 1428 1426 1430 1431 1430 1432 1434 1437 1440 1437 1429 1427 1429 1423 1426 1424 1390 1360 1370 1378 1374 1377 1380 1380 1381 1380 1381 1382 1381 1382 1383 1382 1382
1473 1471 1469 1470 1470 1471 1473 1476 1476 1477 1475 1470 1466 1466 1466 1466 1463 1461 1460 1461 1461 1460 1459 1459 1458 1459 1460 1460 1460 1460 1462 1462 1459 1456 1451 1444 1439 1435 1431 1429 1427 1425 1425 1427 1426 1425 1428 1432 1435 1434 1429 1426 1425 1424 1426 1428 1428 1429 1428 1426 1427 1428 1427 1427 1426 1424 1424 1424 1422 1423 1416 1387 1365 1372 1379 1375 1375 1379 1379 1380 1380 1380 1380 1380 1381 1380 1380 1381
1469 1468 1467 1468 1468 1469 1469 1469 1470 1471 1470 1468 1466 1465 1464 1463 1462 1460 1458 1458 1458 1457 1456 1454 1454 1454 1454 1455 1456 1457 1459 1460 1456 1452 1452 1449 1443 1437 1435 1433 1432 1431 1429 1430 1430 1430 1431 1431 1430 1435 1439 1438 1436 1433 1429 1428 1429 1429 1425 1423 1422 1422 1423 1424 1424 1425 1424 1421 1419 1414 1405 1387 1372 1372 1376 1375 1375 1376 1377 1377 1379 1378 1378 1379 1379 1378 1378 1378
1467 1465 1464 1464 1465 1463 1460 1459 1461 1462 1464 1464 1463 1461 1460 1459 1456 1455 1453 1452 1452 1453 1451 1449 1448 1450 1451 1453 1454 1453 1453 1456 1454 1450 1450 1450 1444 1439 1437 1435 1434 1434 1432 1433 1434 1433 1435 1435 1434 1439 1444 1445 1443 1435 1426 1424 1427 1427 1424 1421 1420 1420 1422 1423 1424 1426 1425 1418 1412 1406 1399 1389 1380 1376 1375 1374 1374 1375 1375 1374 1376 1377 1376 1376 1376 1375 1375 1373
1465 1462 1460 1460 1461 1458 1454 1453 1455 1454 1456 1459 1457 1455 1456 1454 1449 1448 1448 1447 1447 1447 1446 1445 1445 1447 1449 1450 1452 1451 1450 1450 1450 1449 1449 1449 1444 1437 1435 1434 1434 1433 1432 1433 1434 1435 1441 1444 1444 1444 1443 1439 1435 1427 1419 1419 1422 1423 1421 1418 1418 1419 1418 1421 1424 1424 1420 1414 1407 1401 1398 1394 1390 1385 1377 1370 1369 1372 1371 1370 1370 1371 1372 1372 1371 1371 1369 1368
1464 1459 1456 1457 1457 1454 1451 1450 1450 1448 1448 1451 1450 1447 1447 1447 1446 1445 1444 1442 1440 1441 1442 1442 1444 1445 1445 1445 1447 1448 1446 1444 1444 1445 1444 1443 1439 1434 1431 1431 1431 1430 1430 1431 1432 1435 1442 1445 1443 1443 1440 1434 1429 1423 1418 1417 1415 1414 1414 1413 1414 1415 1415 1418 1419 1415 1412 1410 1402 1397 1397 1394 1390 1386 1376 1366 1363 1365 1367 1366 1364 1363 1366 1367 1366 1365 1364 1363
1461 1456 1453 1453 1453 1451 1449 1447 1446 1445 1445 1445 1442 1439 1440 1441 1442 1443 1440 1436 1435 1437 1439 1439 1438 1438 1437 1438 1440 1440 1439 1440 1439 1439 1438 1436 1434 1431 1429 1428 1427 1426 1428 1429 1429 1432 1438 1438 1435 1436 1434 1429 1426 1422 1417 1413 1408 1403 1403 1404 1404 1406 1408 1411 1408 1402 1401 1401 1395 1393 1393 1386 1380 1378 1372 1364 1361 1362 1362 1361 1357 1357 1359 1359 1360 1361 1359 1357
1458 1455 1452 1452 1451 1448 1446 1445 1444 1444 1443 1442 1440 1437 1437 1436 1434 1433 1434 1433 1432 1432 1435 1433 1431 1430 1430 1430 1431 1431 1432 1432 1430 1428 1428 1427 1427 1427 1426 1424 1420 1419 1422 1425 1425 1427 1431 1431 1430 1431 1429 1424 1422 1419 1413 1410 1405 1400 1398 1398 1398 1399 1401 1400 1396 1392 1393 1393 1389 1387 1383 1377 1373 1370 1363 1360 1361 1363 1360 1355 1352 1353 1353 1351 1352 1354 1354 1352
1458 1456 1454 1453 1450 1447 1445 1445 1445 1443 1442 1442 1439 1436 1435 1434 1431 1429 1428 1429 1428 1427 1428 1427 1424 1423 1423 1423 1423 1422 1421 1421 1418 1416 1417 1418 1420 1422 1422 1417 1414 1413 1417 1420 1420 1422 1425 1423 1420 1423 1424 1418 1414 1413 1410 1407 1404 1400 1397 1397 1399 1399 1394 1389 1387 1387 1390 1388 1383 1380 1380 1375 1367 1359 1356 1359 1363 1362 1357 1350 1347 1347 1348 1345 1345 1347 1349 1347
1457 1456 1456 1455 1451 1447 1445 1443 1443 1443 1441 1439 1437 1434 1433 1432 1431 1430 1426 1424 1425 1425 1423 1421 1419 1419 1418 1417 1415 1413 1411 1411 1409 1406 1406 1407 1409 1411 1410 1407 1407 1409 1412 1414 1414 1414 1417 1415 1412 1416 1416 1408 1405 1406 1404 1402 1402 1401 1401 1401 1399 1393 1384 1380 1380 1381 1382 1380 1376 1376 1376 1367 1356 1353 1357 1360 1359 1356 1352 1346 1342 1342 1342 1340 1338 1340 1343 1342
1455 1454 1455 1456 1452 1447 1444 1442 1443 1442 1438 1435 1434 1432 1431 1429 1428 1430 1426 1420 1420 1421 1419 1417 1418 1419 1418 1414 1411 1409 1408 1407 1404 1403 1402 1400 1399 1400 1399 1399 1400 1401 1404 1407 1407 1407 1408 1407 1406 1410 1407 1399 1398 1398 1398 1401 1404 1401 1398 1395 1386 1378 1374 1375 1374 1372 1370 1369 1369 1367 1360 1351 1348 1353 1357 1354 1350 1347 1343 1339 1337 1337 1336 1334 1332 1333 1335 1334